Regional Weather Roundup
Issued by NWS Nashville, TN

Home | Current Version | Previous Version | Text Only | Print | Product List | Glossary On
Versions: 1 2 3 4 5 6 7 8 9 10 11 12 13 14 15 16 17 18 19 20 21 22 23 24 25 26 27 28 29 30 31 32 33 34 35 36 37 38 39 40 41 42 43 44 45 46 47 48 49 50
000
ASUS44 KOHX 072010
RWROHX
MIDDLE TENNESSEE HOURLY WEATHER ROUNDUP
NATIONAL WEATHER SERVICE NASHVILLE TN
300 PM CDT TUE JUL 07 2015

NOTE: "FAIR" INDICATES FEW OR NO CLOUDS BELOW 12,000 FEET WITH
NO SIGNIFICANT WEATHER AND/OR OBSTRUCTIONS TO VISIBILITY.

* THESE REPORTS ARE NOT UNDER NWS QUALITY CONTROL AND MAY NOT
  REPORT WEATHER SUCH AS PRECIPITATION AND FOG.


TNZ005>011-023>034-057-059-062>066-078-080-072100
...NORTHERN MIDDLE TENNESSEE...

CITY           SKY/WX    TMP DP  RH WIND       PRES   REMARKS
CLARKSVILLE    PTSUNNY   84  73  69 SW9       30.01F HX  90
CROSSVILLE     PTSUNNY   82  66  58 W10G18    30.16R
GALLATIN         N/A     88  32  13 VRB6      30.05S
DICKSON        PTSUNNY   84  73  70 SW15      30.05F HX  91
NASHVILLE      PTSUNNY   88  71  57 SW12G18   30.05S HX  94
PORTLAND       PTSUNNY  N/A N/A N/A SW15      30.04S
ROCKWOOD       PTSUNNY   84  73  69 S12       30.14F HX  90
SMYRNA         PTSUNNY   90  71  53 SW12G20   30.06S HX  96
SPARTA         MOSUNNY   91  73  55 SW13      30.09S HX 100
$$
TNZ056-058-060-061-075>077-079-093>097-072100
...SOUTHERN MIDDLE TENNESSEE...

CITY           SKY/WX    TMP DP  RH WIND       PRES   REMARKS
COLUMBIA       MOSUNNY   90  73  58 SW14      30.06S HX  98
LEWISBURG      PTSUNNY   89  69  51 SW69G113  30.07F HX  93
MCMINNVILLE    SUNNY     88  73  62 SW8       30.10S HX  96
SHELBYVILLE    MOSUNNY   90  73  58 SW14        N/A  HX  98
TULLAHOMA      SUNNY     86  70  58 S14       30.11F HX  90
WINCHESTER     MOSUNNY   90  72  55 SW12      30.11F HX  96
$$


...KEY TO REMARKS...
VSB - VISIBILITY IN MILES
WCI - WIND CHILL INDEX
HX  - HEAT INDEX



USA.gov is the U.S. government's official web portal to all federal, state and local government web resources and services.